When you browse on this site, cookies collect data to enhance your experience and personalize the content and advertising you see.
Visit our Privacy Policy to learn more. By continuing to use the site, you agree to this use of cookies and data.
  • en Belgique
  • Liste des pays
  • À 7 jours
  • Température de l'eau
  • Carte météo
  • Widgets météo
  • user-avatar
    Se connecter

    Météo par heure à Nkongsamba

    Ce jour, 5 Juin, Vendredi

    Heure Température Précipitation Vent Pression Humidité
    00:00 +20°C° 0.7 mm 0 m/s 686 mmHg 98%
    01:00 +19°C° 0 mm 0 m/s 686 mmHg 96%
    02:00 +19°C° 0.4 mm 0 m/s 686 mmHg 96%
    03:00 +19°C° 0.4 mm 0 m/s 686 mmHg 96%
    04:00 +19°C° 0.4 mm 0 m/s 686 mmHg 96%
    05:00 +19°C° 0 mm 0 m/s 686 mmHg 96%
    06:00 +19°C° 0 mm 0 m/s 687 mmHg 95%
    07:00 +19°C° 0 mm 0 m/s 687 mmHg 95%
    08:00 +21°C° 0.2 mm 0 m/s 688 mmHg 88%
    09:00 +25°C° 0.2 mm 1 m/s 688 mmHg 80%
    10:00 +27°C° 0.2 mm 1 m/s 689 mmHg 73%
    11:00 +28°C° 0.9 mm 1 m/s 688 mmHg 72%
    12:00 +28°C° 0.9 mm 1 m/s 688 mmHg 71%
    13:00 +29°C° 0.9 mm 1 m/s 688 mmHg 71%
    14:00 +28°C° 1.7 mm 1 m/s 687 mmHg 77%
    15:00 +27°C° 1.7 mm 1 m/s 686 mmHg 83%
    16:00 +26°C° 1.7 mm 1 m/s 685 mmHg 89%
    17:00 +25°C° 2.5 mm 1 m/s 686 mmHg 91%
    18:00 +24°C° 2.5 mm 1 m/s 686 mmHg 94%
    19:00 +22°C° 2.5 mm 1 m/s 687 mmHg 96%
    20:00 +22°C° 0.4 mm 1 m/s 687 mmHg 97%
    21:00 +20°C° 0.4 mm 0 m/s 687 mmHg 98%
    22:00 +20°C° 0.4 mm 0 m/s 687 mmHg 99%
    23:00 +20°C° 0 mm 0 m/s 687 mmHg 99%

    Demain, 6 Juin, Samedi

    Heure Température Précipitation Vent Pression Humidité
    00:00 +20°C° 0 mm 0 m/s 687 mmHg 99%
    01:00 +20°C° 0 mm 0 m/s 687 mmHg 98%
    02:00 +19°C° 0 mm 0 m/s 687 mmHg 98%
    03:00 +19°C° 0 mm 0 m/s 687 mmHg 98%
    04:00 +19°C° 0 mm 0 m/s 686 mmHg 98%
    05:00 +19°C° 0 mm 0 m/s 687 mmHg 97%
    06:00 +20°C° 0 mm 0 m/s 687 mmHg 97%
    07:00 +20°C° 0 mm 0 m/s 688 mmHg 96%
    08:00 +22°C° 0.2 mm 0 m/s 688 mmHg 88%
    09:00 +24°C° 0.2 mm 0 m/s 689 mmHg 80%
    10:00 +26°C° 0.2 mm 0 m/s 689 mmHg 72%
    11:00 +28°C° 1.1 mm 1 m/s 689 mmHg 72%
    12:00 +28°C° 1.1 mm 1 m/s 689 mmHg 72%
    13:00 +29°C° 1.1 mm 1 m/s 688 mmHg 72%
    14:00 +28°C° 1.9 mm 1 m/s 687 mmHg 78%
    15:00 +25°C° 1.9 mm 0 m/s 687 mmHg 83%
    16:00 +24°C° 1.9 mm 0 m/s 686 mmHg 89%
    17:00 +23°C° 1 mm 0 m/s 686 mmHg 91%
    18:00 +21°C° 1 mm 0 m/s 686 mmHg 94%
    19:00 +22°C° 1 mm 1 m/s 686 mmHg 96%
    20:00 +20°C° 0 mm 0 m/s 686 mmHg 96%
    21:00 +19°C° 0 mm 0 m/s 686 mmHg 97%
    22:00 +19°C° 0 mm 0 m/s 686 mmHg 97%
    23:00 +19°C° 0 mm 0 m/s 686 mmHg 97%

    Après-demain, 7 Juin, Dimanche

    Heure Température Précipitation Vent Pression Humidité
    00:00 +19°C° 0 mm 0 m/s 686 mmHg 97%
    01:00 +19°C° 0 mm 0 m/s 686 mmHg 97%
    02:00 +19°C° 0 mm 0 m/s 686 mmHg 97%
    03:00 +18°C° 0 mm 0 m/s 686 mmHg 97%
    04:00 +18°C° 0 mm 0 m/s 686 mmHg 97%
    05:00 +19°C° 0 mm 0 m/s 686 mmHg 96%
    06:00 +19°C° 0 mm 0 m/s 686 mmHg 95%
    07:00 +19°C° 0 mm 0 m/s 687 mmHg 95%
    08:00 +21°C° 0 mm 0 m/s 687 mmHg 87%
    09:00 +25°C° 0 mm 1 m/s 688 mmHg 79%
    10:00 +27°C° 0 mm 1 m/s 688 mmHg 71%
    11:00 +28°C° 0.2 mm 1 m/s 688 mmHg 69%
    12:00 +28°C° 0.2 mm 1 m/s 688 mmHg 68%
    13:00 +28°C° 0.2 mm 1 m/s 687 mmHg 67%
    14:00 +28°C° 0.8 mm 1 m/s 687 mmHg 71%
    15:00 +27°C° 0.8 mm 1 m/s 686 mmHg 76%
    16:00 +27°C° 0.8 mm 1 m/s 685 mmHg 80%
    17:00 +25°C° 0.6 mm 1 m/s 685 mmHg 86%
    18:00 +22°C° 0.6 mm 0 m/s 685 mmHg 92%
    19:00 +20°C° 0.6 mm 0 m/s 685 mmHg 98%
    20:00 +20°C° 1.2 mm 0 m/s 686 mmHg 98%
    21:00 +20°C° 1.2 mm 0 m/s 686 mmHg 98%
    22:00 +20°C° 1.2 mm 0 m/s 686 mmHg 98%
    23:00 +19°C° 0.7 mm 0 m/s 686 mmHg 98%

    8 Juin, Lundi

    Heure Température Précipitation Vent Pression Humidité
    00:00 +19°C° 0.7 mm 0 m/s 686 mmHg 98%
    01:00 +19°C° 0.7 mm 0 m/s 686 mmHg 98%
    02:00 +19°C° 0.5 mm 0 m/s 686 mmHg 98%
    03:00 +19°C° 0.5 mm 0 m/s 685 mmHg 98%
    04:00 +19°C° 0.5 mm 0 m/s 685 mmHg 98%
    05:00 +19°C° 0 mm 0 m/s 686 mmHg 98%
    06:00 +20°C° 0 mm 0 m/s 686 mmHg 97%
    07:00 +20°C° 0 mm 0 m/s 686 mmHg 97%
    08:00 +21°C° 0.2 mm 0 m/s 687 mmHg 92%
    09:00 +22°C° 0.2 mm 0 m/s 687 mmHg 87%
    10:00 +24°C° 0.2 mm 0 m/s 688 mmHg 82%
    11:00 +24°C° 1.1 mm 0 m/s 688 mmHg 80%
    12:00 +27°C° 1.1 mm 1 m/s 687 mmHg 79%
    13:00 +27°C° 1.1 mm 1 m/s 687 mmHg 77%
    14:00 +27°C° 0.9 mm 1 m/s 686 mmHg 77%
    15:00 +27°C° 0.9 mm 1 m/s 685 mmHg 78%
    16:00 +26°C° 0.9 mm 1 m/s 685 mmHg 78%
    17:00 +25°C° 0.3 mm 1 m/s 685 mmHg 84%
    18:00 +24°C° 0.2 mm 1 m/s 685 mmHg 91%
    19:00 +20°C° 0.2 mm 0 m/s 685 mmHg 97%
    20:00 +20°C° 0.1 mm 0 m/s 685 mmHg 97%
    21:00 +20°C° 0.1 mm 0 m/s 686 mmHg 98%
    22:00 +20°C° 0.1 mm 0 m/s 686 mmHg 98%
    23:00 +20°C° 0 mm 0 m/s 686 mmHg 98%

    9 Juin, Mardi

    Heure Température Précipitation Vent Pression Humidité
    00:00 +20°C° 0 mm 0 m/s 685 mmHg 98%
    01:00 +19°C° 0 mm 0 m/s 685 mmHg 99%
    02:00 +19°C° 0.1 mm 0 m/s 685 mmHg 98%
    03:00 +19°C° 0.1 mm 0 m/s 685 mmHg 98%
    04:00 +19°C° 0.1 mm 0 m/s 685 mmHg 98%
    05:00 +19°C° 0 mm 0 m/s 686 mmHg 97%
    06:00 +20°C° 0 mm 0 m/s 686 mmHg 97%
    07:00 +20°C° 0 mm 0 m/s 686 mmHg 96%
    08:00 +21°C° 0 mm 0 m/s 687 mmHg 92%
    09:00 +22°C° 0 mm 0 m/s 687 mmHg 89%
    10:00 +23°C° 0 mm 0 m/s 688 mmHg 85%
    11:00 +26°C° 0.2 mm 1 m/s 687 mmHg 77%
    12:00 +28°C° 0.2 mm 1 m/s 687 mmHg 70%
    13:00 +29°C° 0.2 mm 1 m/s 687 mmHg 62%
    14:00 +28°C° 1 mm 1 m/s 686 mmHg 71%
    15:00 +27°C° 1 mm 1 m/s 685 mmHg 80%
    16:00 +26°C° 1 mm 1 m/s 685 mmHg 88%
    17:00 +25°C° 0.6 mm 1 m/s 685 mmHg 92%
    18:00 +21°C° 0.6 mm 0 m/s 685 mmHg 95%
    19:00 +20°C° 0.6 mm 0 m/s 685 mmHg 98%
    20:00 +20°C° 0.1 mm 0 m/s 685 mmHg 98%
    21:00 +20°C° 0.1 mm 0 m/s 686 mmHg 98%
    22:00 +20°C° 0.1 mm 0 m/s 686 mmHg 99%
    23:00 +20°C° 0.1 mm 0 m/s 686 mmHg 99%

    10 Juin, Mercredi

    Heure Température Précipitation Vent Pression Humidité
    00:00 +20°C° 0.1 mm 0 m/s 686 mmHg 99%
    01:00 +20°C° 0.1 mm 0 m/s 686 mmHg 98%
    02:00 +19°C° 0 mm 0 m/s 686 mmHg 98%
    03:00 +19°C° 0 mm 0 m/s 686 mmHg 98%
    04:00 +19°C° 0 mm 0 m/s 686 mmHg 98%
    05:00 +19°C° 0.2 mm 0 m/s 686 mmHg 98%
    06:00 +19°C° 0.2 mm 0 m/s 686 mmHg 97%
    07:00 +19°C° 0.2 mm 0 m/s 686 mmHg 97%
    08:00 +21°C° 0.1 mm 0 m/s 687 mmHg 90%
    09:00 +23°C° 0.1 mm 0 m/s 687 mmHg 84%
    10:00 +26°C° 0.1 mm 1 m/s 688 mmHg 78%
    11:00 +27°C° 0.6 mm 1 m/s 688 mmHg 77%
    12:00 +27°C° 0.6 mm 1 m/s 687 mmHg 76%
    13:00 +28°C° 0.6 mm 1 m/s 687 mmHg 75%
    14:00 +27°C° 2.2 mm 1 m/s 686 mmHg 79%
    15:00 +26°C° 2.2 mm 1 m/s 686 mmHg 84%
    16:00 +26°C° 2.2 mm 1 m/s 685 mmHg 89%
    17:00 +24°C° 2.3 mm 1 m/s 685 mmHg 92%
    18:00 +23°C° 2.3 mm 1 m/s 685 mmHg 94%
    19:00 +20°C° 2.3 mm 0 m/s 685 mmHg 97%
    20:00 +20°C° 1.1 mm 0 m/s 685 mmHg 98%
    21:00 +22°C° 1.1 mm 1 m/s 686 mmHg 98%
    22:00 +21°C° 1.1 mm 1 m/s 686 mmHg 99%
    23:00 +19°C° 0.1 mm 0 m/s 686 mmHg 99%
    Voir plus